This demonstration page uses our WeatherBlox Daily Observations layout. Learn more.

Left ArrowRight Arrow

36.17497, -115.13722

Hourly Observations for June 16, 2021

Temp ( °F °C ) Dew Point ( °F °C ) Humidity (%) Winds ( mph kmh ) Pressure ( in mb ) Visibility ( mi km ) Precip ( " mm )
12:53 am 00:53 Clear 94 34.4 33 0.6 12 12 WSW 7 11 29.78 1008 10 16 N/A
1:53 am 01:53 Clear 91 32.8 32 undefined 12 12 W 3 6 29.78 1008 10 16 N/A
2:53 am 02:53 Clear 89 31.7 34 1.1 14 14 W 9 15 29.77 1008 10 16 N/A
3:53 am 03:53 Clear 88 31.1 33 0.6 14 14 N N/A 29.78 1009 10 16 N/A
4:53 am 04:53 Clear 86 30 30 -1.1 13 13 WNW 6 9 29.79 1009 10 16 N/A
5:53 am 05:53 Sunny 86 30 30 -1.1 13 13 N N/A 29.81 1010 10 16 N/A
6:53 am 06:53 Sunny 89 31.7 33 0.6 14 14 W 7 11 29.82 1010 10 16 N/A
7:53 am 07:53 Sunny 95 35 32 undefined 11 11 WNW 8 13 29.83 1010 10 16 N/A
8:53 am 08:53 Sunny 102 38.9 29 -1.7 8 8 N N/A 29.84 1010 10 16 N/A
9:53 am 09:53 Sunny 103 39.4 30 -1.1 8 8 NE 6 9 29.83 1010 10 16 N/A
10:53 am 10:53 Sunny 104 40 25 -3.9 6 6 N N/A 29.82 1010 10 16 N/A
11:53 am 11:53 Sunny 109 42.8 24 -4.4 5 5 VRB 5 7 29.80 1009 10 16 N/A
12:53 pm 12:53 Sunny 112 44.4 23 -5 4 4 ESE 7 11 29.77 1008 10 16 N/A
1:53 pm 13:53 Sunny 114 45.6 24 -4.4 4 4 S 9 15 29.75 1007 10 16 N/A
2:53 pm 14:53 Sunny 114 45.6 24 -4.4 4 4 SW 7 11 29.73 1007 10 16 N/A
3:53 pm 15:53 Sunny 116 46.7 25 -3.9 4 4 N N/A 29.71 1006 10 16 N/A
4:53 pm 16:53 Sunny 116 46.7 25 -3.9 4 4 N 6 9 29.68 1005 10 16 N/A
5:53 pm 17:53 Sunny 115 46.1 25 -3.9 4 4 N N/A 29.67 1005 10 16 N/A
6:53 pm 18:53 Sunny 114 45.6 25 -3.9 4 4 N N/A 29.67 1005 10 16 N/A
7:53 pm 19:53 Sunny 111 43.9 28 -2.2 5 5 ESE 6 9 29.67 1005 10 16 N/A
8:53 pm 20:53 Clear 106 41.1 33 0.6 8 8 SE 7 11 29.68 1005 10 16 N/A
9:53 pm 21:53 Clear 103 39.4 38 3.3 11 11 NNW 12 19 29.70 1006 10 16 N/A
10:53 pm 22:53 Clear 101 38.3 32 undefined 9 9 NNW 7 11 29.70 1006 10 16 N/A
11:53 pm 23:53 Clear 99 37.2 30 -1.1 9 9 N 5 7 29.70 1006 10 16 N/A

Powered by AerisWeather